Location: Newark
(33.6333°S, 78.8500°W)
Time: 11:09:27
(UTC+00:00)

Transit 2A - Visible Passes

Search period start: 23 September 2019 00:00
Search period end: 03 October 2019 00:00
Orbit: 599 x 960 km, 66.7° (Epoch: 22 September)

Date Brightness Start Highest point End Pass type
(mag) Time Alt. Az. Time Alt. Az. Time Alt. Az.
26 Sep 9.0 03:10:30 10° SSW 03:11:13 14° SSW 03:11:13 14° SSW visible
27 Sep 8.6 02:36:38 10° S 02:38:11 17° S 02:38:11 17° S visible
28 Sep 8.3 02:02:55 10° S 02:05:10 19° SSE 02:05:10 19° SSE visible
28 Sep 9.2 03:45:27 10° SW 03:45:41 11° SW 03:45:41 11° SW visible
29 Sep 8.2 01:29:25 10° S 01:32:12 17° SSE 01:32:12 17° SSE visible
29 Sep 8.7 03:11:11 10° SSW 03:12:42 18° SSW 03:12:42 18° SSW visible
30 Sep 8.3 00:56:19 10° SSE 00:59:12 13° SE 00:59:16 13° SE visible
30 Sep 8.1 02:37:03 10° SSW 02:39:47 27° SSW 02:39:47 27° SSW visible
01 Oct 7.5 02:03:03 10° SSW 02:06:54 36° S 02:06:54 36° S visible
01 Oct 9.2 03:47:19 10° WSW 03:47:24 10° WSW 03:47:24 10° WSW visible
02 Oct 7.3 01:29:09 10° S 01:34:04 36° SE 01:34:04 36° SE visible
02 Oct 8.7 03:12:34 10° SW 03:14:34 19° WSW 03:14:34 19° WSW visible
